Terminal Aerodrome Forecast
Issued by NWS

Home | Current Version | Previous Version | Graphics & Text | Print | Product List | Glossary On
Versions: 1 2 3 4 5 6 7 8 9 10 11 12 13 14
000
FTUS43 KBIS 011737
TAFJMS
TAF
KJMS 011737Z 0118/0218 01003KT P6SM SKC
     FM020800 20004KT P6SM SCT080
     FM021200 25006KT P6SM BKN080=

USA.gov is the U.S. government's official web portal to all federal, state and local government web resources and services.